Home   Weather   Morristown   Past weeks
Flag for USA

Past Weather in Morristown, New Jersey, USA — Yesterday and Last 2 Weeks

Now
95 °F

Scattered clouds.


Feels Like: 113 °F
Forecast: 96 / 79 °F
Wind: 10 mph from Southwest

Location: Morristown Municipal

Current Time: Jul 21, 2019 at 3:26:06 pm

Latest Report: Jul 21, 2019 at 1:45 pm


Visibility: 10 mi

Pressure: 29.80 "Hg

Humidity: 60%

Dew Point: 79 °F

Location of MorristownLocation

Past Weather in Morristown — Graph

°F

Morristown Temperature Yesterday

Maximum temperature yesterday: 95 °F (at 2:45 pm)
Minimum temperature yesterday: 73 °F (at 4:15 am)
Average temperature yesterday: 82 °F

High & Low Weather Summary for the Past Weeks

 TemperatureHumidityPressure
High95 °F (Jul 20, 2:45 pm)100% (Jul 6, 8:45 pm)30.10 "Hg (Jul 6, 8:45 pm)
Low59 °F (Jul 15, 5:35 am)38% (Jul 9, 2:45 pm)29.72 "Hg (Jul 12, 3:55 am)
Average75 °F85%29.93 "Hg
* Reported Jul 6 1:45 pm — Jul 21 1:45 pm, Morristown. Weather by CustomWeather, © 2019

Note: Actual official high and low records may vary slightly from our data, if they occured in-between our weather recording intervals... More about our weather records

Advertising

Morristown Weather History for the Previous 24 Hours

Scroll right to see more
 ConditionsComfort  
Time TempWeatherWind HumidityBarometerVisibility
1:45 pm
Sun, Jul 21
95 °FScattered clouds.10 mph60%29.80 "Hg10 mi
12:55 pm95 °FScattered clouds.13 mph56%29.80 "Hg10 mi
11:45 am91 °FScattered clouds.7 mph67%29.82 "Hg10 mi
10:45 am91 °FScattered clouds.9 mph67%29.83 "Hg10 mi
9:45 am88 °FScattered clouds.6 mph75%29.83 "Hg10 mi
8:45 am86 °FPartly sunny.6 mph75%29.84 "Hg10 mi
7:45 am84 °FBroken clouds.6 mph79%29.84 "Hg10 mi
6:45 am81 °FPassing clouds.7 mph89%29.83 "Hg10 mi
6:35 am79 °FSunny.6 mph89%29.81 "Hg10 mi
6:15 am75 °FSunny.6 mph100%29.79 "Hg7 mi
5:55 am77 °FSunny.No wind94%29.79 "Hg10 mi
5:35 am77 °FClear.3 mph100%29.78 "Hg10 mi
5:15 am77 °FClear.3 mph100%29.77 "Hg10 mi
4:55 am77 °FClear.No wind100%29.78 "Hg10 mi
4:35 am75 °FClear.No wind100%29.78 "Hg7 mi
4:15 am77 °FClear.No wind100%29.78 "Hg10 mi
3:55 am75 °FClear.No wind100%29.79 "Hg7 mi
3:35 am75 °FClear.No wind100%29.78 "Hg10 mi
3:15 am77 °FClear.No wind94%29.79 "Hg10 mi
2:55 am77 °FClear.No wind94%29.79 "Hg10 mi
2:15 am77 °FClear.No wind100%29.80 "Hg10 mi
1:55 am77 °FClear.No wind100%29.81 "Hg10 mi
1:35 am77 °FClear.No wind100%29.80 "Hg10 mi
12:55 am81 °FClear.3 mph84%29.81 "Hg10 mi
12:35 am82 °FClear.3 mph79%29.81 "Hg10 mi
11:55 pm
Sat, Jul 20
81 °FClear.3 mph84%29.81 "Hg10 mi
11:35 pm82 °FClear.3 mph79%29.81 "Hg10 mi
11:15 pm84 °FClear.5 mph74%29.81 "Hg10 mi
10:55 pm84 °FClear.3 mph74%29.81 "Hg10 mi
10:35 pm82 °FClear.3 mph84%29.82 "Hg10 mi
9:45 pm86 °FClear.5 mph75%29.82 "Hg10 mi
8:46 pm90 °FPassing clouds.7 mph67%29.81 "Hg10 mi
7:45 pm91 °FScattered clouds.9 mph63%29.82 "Hg10 mi
6:45 pm93 °FScattered clouds.9 mph56%29.81 "Hg10 mi
5:55 pm93 °FPartly sunny.9 mph56%29.80 "Hg10 mi
4:45 pm95 °FScattered clouds.12 mph53%29.80 "Hg10 mi
3:45 pm95 °FScattered clouds.10 mph53%29.81 "Hg10 mi
Weather by CustomWeather, © 2019

See weather overview